FW9285 Weather Reports


Display with metric or nautical units.
time (UTC)temp
F
wind
direction
speed
MPH
gust
MPH
rain 1hr
in
rain 24hr
in
rain mn
in
humidity
%
barometer
mb
20260901051659 77 141 1.0 2.0 0.00 0.73 0.73 76 1013.8
20260901050659 77 248 0.0 3.0 0.00 0.73 0.73 77 1013.9
20260901045659 77 204 0.0 2.0 0.00 0.73 0.73 80 1013.9
20260901044659 77 178 2.0 3.0 0.00 0.73 0.73 81 1013.5
20260901043659 77 254 1.0 2.0 0.00 0.73 0.73 81 1014.1
20260901042659 78 279 0.0 2.0 0.00 0.73 0.73 80 1013.9
20260901034659 79 219 1.0 3.0 0.00 0.73 0.73 73 1013.4
20260901032659 80 184 1.0 2.0 0.00 0.73 0.73 69 1013.5
20260901031659 80 214 0.0 2.0 0.00 0.73 0.73 68 1013.4
20260901030659 80 114 0.0 2.0 0.00 0.73 0.73 66 1013.0
20260901025659 81 226 0.0 2.0 0.00 0.73 0.73 64 1013.4
20260901024659 80 245 0.0 2.0 0.00 0.73 0.73 64 1013.8
20260901023659 80 261 0.0 2.0 0.00 0.73 0.73 64 1013.2
20260901020659 81 209 0.0 3.0 0.00 0.73 0.73 62 1012.3
20260901015659 82 125 2.0 3.0 0.00 0.73 0.73 61 1012.2
20260901014659 82 200 0.0 3.0 0.00 0.73 0.73 61 1011.7
20260901013659 82 191 1.0 2.0 0.00 0.73 0.73 60 1011.8
20260901012659 83 162 2.0 4.0 0.00 0.73 0.73 60 1012.0
20260901010659 83 142 2.0 4.0 0.00 0.73 0.73 57 1012.2
20260901005659 85 160 1.0 5.0 0.00 0.73 0.73 55 1012.1
20260901003701 85 120 2.0 5.0 0.00 0.73 0.73 54 1012.4
20260901002700 85 262 3.0 5.0 0.00 0.73 0.73 54 1012.3
20260901001659 86 78 2.0 6.0 0.00 0.73 0.73 53 1012.4
20260901000659 86 149 1.0 9.0 0.00 0.73 0.73 53 1012.5
20260831235659 85 234 1.0 8.0 0.00 0.73 0.73 55 1012.5
20260831233659 84 118 7.0 9.0 0.00 0.73 0.73 55 1012.6
20260831232659 84 153 3.0 8.0 0.00 0.73 0.73 55 1012.3
20260831230659 84 152 3.0 10.0 0.00 0.73 0.73 55 1012.6
20260831225659 84 146 2.0 13.0 0.00 0.73 0.73 56 1013.0
20260831224701 84 134 5.0 12.0 0.00 0.73 0.73 57 1013.2
20260831222703 83 136 6.0 14.0 0.00 0.73 0.73 57 1013.5
20260831221658 84 189 4.0 11.0 0.00 0.73 0.73 59 1013.6
20260831220659 84 131 2.0 9.0 0.00 0.73 0.73 59 1014.0
20260831215659 84 307 0.0 10.0 0.00 0.73 0.73 59 1014.6
20260831214659 83 127 4.0 9.0 0.00 0.73 0.73 60 1014.8
20260831213659 83 159 3.0 9.0 0.00 0.73 0.73 61 1014.6
20260831212659 83 176 2.0 9.0 0.00 0.73 0.73 62 1014.9
20260831205700 82 151 4.0 7.0 0.00 0.73 0.73 63 1015.6
20260831204659 80 194 2.0 6.0 0.00 0.73 0.73 69 1015.5
20260831203659 80 170 2.0 5.0 0.00 0.73 0.73 70 1015.7
20260831202659 79 192 1.0 7.0 0.00 0.73 0.73 73 1015.8
20260831201659 77 162 3.0 6.0 0.00 0.73 0.73 75 1015.9
20260831200700 76 129 5.0 8.0 0.00 0.73 0.73 78 1015.7
20260831195659 75 181 1.0 6.0 0.00 0.73 0.73 81 1016.2
20260831194659 75 165 2.0 6.0 0.00 0.73 0.73 84 1016.1
20260831193659 74 164 5.0 8.0 0.00 0.73 0.73 86 1015.7
20260831192701 72 149 2.0 10.0 0.01 0.73 0.73 88 1015.7
20260831191659 72 158 3.0 6.0 0.01 0.73 0.73 92 1015.7
20260831190659 71 176 2.0 6.0 0.02 0.73 0.73 94 1016.2
20260831185659 71 182 2.0 6.0 0.02 0.71 0.73 94 1016.6
20260831183659 71 169 3.0 6.0 0.04 0.71 0.72 93 1017.4
20260831182659 72 142 3.0 6.0 0.06 0.71 0.72 94 1017.7
20260831181659 72 171 3.0 5.0 0.06 0.71 0.72 93 1017.8
20260831180700 73 178 2.0 4.0 0.06 0.71 0.71 94 1017.6
20260831173659 73 178 1.0 3.0 0.03 0.65 0.68 93 1017.7
20260831172659 73 170 0.0 4.0 0.01 0.65 0.67 92 1017.8
20260831171659 74 155 1.0 5.0 0.01 0.65 0.66 92 1017.8
20260831165659 74 187 2.0 4.0 0.01 0.65 0.65 93 1017.5
20260831164659 74 264 2.0 7.0 0.02 0.65 0.65 93 1016.9
20260831163659 74 49 2.0 6.0 0.05 0.65 0.65 93 1016.7
20260831162659 74 23 3.0 5.0 0.06 0.65 0.65 93 1016.4
20260831161659 73 322 4.0 4.0 0.06 0.65 0.65 93 1016.3
20260831160704 73 162 0.0 4.0 0.06 0.65 0.65 93 1016.4
20260831155659 73 64 1.0 5.0 0.06 0.58 0.64 92 1015.9
20260831154659 73 58 2.0 5.0 0.05 0.58 0.63 92 1015.7
20260831153659 74 296 1.0 3.0 0.02 0.58 0.60 90 1015.6
20260831151659 73 303 3.0 5.0 0.02 0.58 0.60 90 1015.7
20260831150659 73 36 2.0 4.0 0.02 0.58 0.59 88 1015.9
20260831145700 73 280 1.0 3.0 0.01 0.57 0.58 89 1015.9
20260831144700 73 216 0.0 6.0 0.02 0.57 0.58 90 1015.5
20260831143659 73 185 1.0 8.0 0.04 0.57 0.58 90 1015.3
20260831142659 73 84 4.0 11.0 0.05 0.57 0.58 92 1014.9
20260831140659 72 123 3.0 6.0 0.07 0.57 0.57 93 1015.1
20260831135659 72 133 5.0 10.0 0.09 0.48 0.57 93 1014.6
20260831134659 72 156 2.0 11.0 0.09 0.48 0.56 93 1014.9
20260831133659 72 160 3.0 11.0 0.09 0.48 0.54 93 1014.5
20260831132659 72 140 4.0 11.0 0.10 0.48 0.53 93 1014.1
20260831131659 72 5 1.0 9.0 0.09 0.48 0.52 93 1014.2
20260831130659 72 159 5.0 6.0 0.08 0.48 0.50 92 1014.1
20260831125659 73 126 2.0 6.0 0.06 0.42 0.48 92 1014.1
20260831124701 73 165 3.0 11.0 0.04 0.42 0.46 89 1013.6
20260831122659 74 214 3.0 7.0 0.01 0.42 0.43 85 1014.0
20260831121659 75 158 3.0 7.0 0.00 0.42 0.43 85 1013.5
20260831120659 75 235 2.0 9.0 0.00 0.42 0.43 87 1013.4
20260831115659 76 170 2.0 5.0 0.00 0.42 0.42 86 1013.4
20260831114659 75 228 3.0 5.0 0.00 0.42 0.42 85 1012.8
20260831113659 75 243 3.0 7.0 0.00 0.42 0.42 87 1013.0
20260831112700 75 192 1.0 4.0 0.00 0.42 0.42 89 1012.4
20260831111701 75 267 2.0 4.0 0.00 0.42 0.42 90 1011.9
20260831110659 75 247 2.0 3.0 0.00 0.42 0.42 90 1011.8
20260831105701 75 203 1.0 3.0 0.02 0.41 0.42 89 1011.9
20260831104700 75 305 2.0 2.0 0.02 0.41 0.42 87 1012.0
20260831103700 75 221 2.0 5.0 0.02 0.41 0.42 85 1012.4
20260831101659 74 120 3.0 6.0 0.02 0.41 0.42 88 1011.2
20260831100659 75 52 5.0 5.0 0.04 0.41 0.42 91 1011.2
20260831095700 74 231 1.0 3.0 0.03 0.38 0.41 90 1011.6
20260831094659 74 214 3.0 5.0 0.07 0.38 0.41 89 1012.3
20260831093659 74 34 2.0 4.0 0.12 0.38 0.41 89 1011.7
20260831092659 74 324 2.0 5.0 0.17 0.38 0.41 89 1011.7
20260831090659 74 1 1.0 9.0 0.27 0.38 0.38 88 1011.6
20260831085700 74 2 4.0 8.0 0.37 0.02 0.36 85 1011.8
20260831084659 75 46 4.0 11.0 0.33 0.02 0.33 85 1011.6
20260831083700 75 3 4.0 13.0 0.28 0.02 0.28 86 1011.7
20260831082659 75 8 6.0 13.0 0.23 0.02 0.21 87 1011.9
20260831081659 78 326 8.0 11.0 0.13 0.02 0.13 75 1012.6
20260831074700 85 263 4.0 6.0 0.00 0.00 0.00 54 1012.2
20260831073659 85 266 5.0 6.0 0.00 0.00 0.00 55 1011.9
20260831072700 85 247 1.0 2.0 0.00 0.00 0.00 55 1011.1
20260831071659 85 181 1.0 4.0 0.00 0.00 0.00 55 1011.2
20260831070659 85 212 2.0 5.0 0.00 0.00 0.00 54 1011.3
20260831065659 85 296 0.0 4.0 0.00 0.00 0.00 54 1011.6
20260831064659 85 209 1.0 3.0 0.00 0.00 0.00 55 1011.5
20260831063700 86 187 3.0 4.0 0.00 0.00 0.00 53 1011.2
20260831062700 86 230 2.0 6.0 0.00 0.00 0.00 53 1011.0
20260831061659 90 276 1.0 10.0 0.00 0.00 0.00 39 1010.8
20260831060658 86 207 2.0 4.0 0.00 0.00 0.00 52 1011.1
20260831055659 90 234 1.0 11.0 0.00 0.00 0.00 41 1011.2
20260831054702 90 264 5.0 11.0 0.00 0.06 0.00 39 1010.4
20260831053659 88 257 4.0 9.0 0.00 0.18 0.00 44 1010.6
20260831052659 87 298 4.0 15.0 0.00 0.28 0.00 47 1010.5